Вернуться в каталог

COSMOS 2535 DEB

АктивенSSO
NORAD 44631·DEBRIS·🇷🇺 Russia

Запущен Jul 10, 2019 с Plesetsk Cosmodrome

Loading…

Ближайшие Пролёты (ближайшие 24 часа)

TLE

СвежийSource: Space-Track

Эпоха: Sep 14, 2026, 13:19 UTC

1 44631U 19039H   26257.55496273  .00005418  00000-0  29055-3 0  9995
2 44631  97.5125 295.8949 0019957 110.7735 249.5638 15.15216162378476

Отслеживайте COSMOS 2535 DEB в реальном времени с AllMySat

Download on the App Store